Tracking 20037 objects as of 17-Nov-2019
Live streaming from Space Station
objects crossing your sky now

METEOR M2-2

Track METEOR M2-2 now!
10-day predictions
METEOR M2-2 is classified as:


NORAD ID: 44387
Int'l Code: 2019-038A
Perigee: 819.3 km
Apogee: 823.2 km
Inclination: 98.6 °
Period: 101.2 minutes
Semi major axis: 7192 km
RCS: Unknown
Launch date: July 5, 2019
Source: Commonwealth of Independent States (former USSR) (CIS)
Launch site: VOSTOCHNY COSMODROME (VOSTO)

Uplink (MHz):
Downlink (MHz): 137.100/137.900
Beacon (MHz):
Mode: 72Kbps QPSK
Call sign:
Status:

aabbcc
Your satellite tracking list
Your tracking list is empty




NASA's NSSDC Master Catalog

Two Line Element Set (TLE):
1 44387U 19038A   19321.19867114 -.00000026  00000-0  74534-5 0  9997
2 44387  98.5892 280.8549 0002674  65.4517 294.6940 14.23335585 19195
Source of the keplerian elements: AFSPC